Location: Evergreen Manor
(41.4083°N, 81.4939°W)
Time: 21:32:28
(UTC+00:00)

Cosmos 1603 - Pass Details

Date: 11 December 2019
Orbit: 830 x 860 km, 71.0° (Epoch: 22 January)

Event Time Altitude Azimuth Distance (km) Brightness Sun altitude
Exits shadow 10:58:25 30° 307° (NW) 1,492 4.5 -18.7°
Maximum altitude 11:00:49 47° 253° (WSW) 1,118 4.0 -18.3°
Drops below altitude 10° 11:06:14 10° 181° (S) 2,470 6.3 -17.3°
Sets 11:08:45 0° 175° (S) 3,397 7.1 -16.8°
